User: anonymous   Login
Location: Brno
(49.2000°N, 16.6330°E)
Time: 18:26:51
(UTC+01:00)
Language:

CARTOSAT-1 - Orbit

View from above orbital plane
View from above orbital plane
View from above satellite
View from above satellite

Ground track
Ground track

The orbit data is extracted from the following two-line orbital elements,

1 28649U 05017A   18055.15378168  .00000120  00000-0  20998-4 0  9995
2 28649  97.8335 130.2402 0001048 358.0917   2.0276 14.83470863693339
Epoch (UTC): 24 February 2018 03:41:26
Eccentricity: 0.0001048
inclination: 97.8335°
perigee height: 617 km
apogee height: 619 km
right ascension of ascending node: 130.2402°
argument of perigee: 358.0917°
revolutions per day: 14.83470863
mean anomaly at epoch: 2.0276°
orbit number at epoch: 69333

The dashed part of the orbit path shows where the satellite is in the earth's shadow,  

DLR